TimeEST,TemperatureF,Dew PointF,Humidity,Sea Level PressureIn,VisibilityMPH,Wind Direction,Wind SpeedMPH,Gust SpeedMPH,PrecipitationIn,Events,Conditions,WindDirDegrees,DateUTC
12:54 AM,35.1,27.0,72,30.20,10.0,Calm,Calm,-,N/A,,Clear,0,2013-02-07 05:54:00
1:54 AM,35.1,27.0,72,30.21,10.0,Calm,Calm,-,N/A,,Clear,0,2013-02-07 06:54:00
2:54 AM,34.0,27.0,75,30.20,10.0,Calm,Calm,-,N/A,,Clear,0,2013-02-07 07:54:00
3:54 AM,34.0,27.0,75,30.22,10.0,Calm,Calm,-,N/A,,Clear,0,2013-02-07 08:54:00
4:54 AM,34.0,27.0,75,30.23,10.0,Calm,Calm,-,N/A,,Clear,0,2013-02-07 09:54:00
5:54 AM,34.0,28.0,79,30.22,10.0,Calm,Calm,-,N/A,,Clear,0,2013-02-07 10:54:00
6:54 AM,34.0,28.0,79,30.22,10.0,Calm,Calm,-,N/A,,Scattered Clouds,0,2013-02-07 11:54:00
7:54 AM,35.1,28.9,78,30.23,10.0,ESE,3.5,-,N/A,,Mostly Cloudy,120,2013-02-07 12:54:00
8:54 AM,37.9,27.0,65,30.23,10.0,Calm,Calm,-,N/A,,Overcast,0,2013-02-07 13:54:00
9:54 AM,41.0,28.0,60,30.23,10.0,Calm,Calm,-,N/A,,Overcast,0,2013-02-07 14:54:00
10:54 AM,44.1,27.0,51,30.22,10.0,South,3.5,-,N/A,,Overcast,190,2013-02-07 15:54:00
11:54 AM,43.0,28.0,56,30.19,10.0,Calm,Calm,-,0.00,Rain,Light Rain,0,2013-02-07 16:54:00
12:54 PM,41.0,34.0,76,30.17,7.0,SSW,3.5,-,0.04,Rain,Light Rain,210,2013-02-07 17:54:00
1:54 PM,39.9,37.0,89,30.15,6.0,Calm,Calm,-,0.05,Rain,Light Rain,0,2013-02-07 18:54:00
2:54 PM,39.9,37.9,93,30.14,5.0,SSW,3.5,-,0.02,Rain,Light Rain,200,2013-02-07 19:54:00
3:43 PM,39.2,37.4,93,30.10,5.0,Calm,Calm,-,0.01,Rain,Light Rain,0,2013-02-07 20:43:00
3:54 PM,39.9,37.9,93,30.12,4.0,Calm,Calm,-,0.02,Rain,Light Rain,0,2013-02-07 20:54:00
4:12 PM,39.2,39.2,100,30.09,2.5,Calm,Calm,-,0.02,Rain,Light Rain,0,2013-02-07 21:12:00
4:21 PM,41.0,39.2,93,30.08,3.0,Calm,Calm,-,0.03,Rain,Light Rain,0,2013-02-07 21:21:00
4:28 PM,41.0,39.2,93,30.08,4.0,Calm,Calm,-,0.03,Rain,Light Rain,0,2013-02-07 21:28:00
4:54 PM,41.0,39.0,93,30.09,4.0,South,3.5,-,0.05,Rain,Light Rain,180,2013-02-07 21:54:00
5:11 PM,39.2,39.2,100,30.07,2.5,Calm,Calm,-,0.01,Rain,Light Rain,0,2013-02-07 22:11:00
5:40 PM,41.0,39.2,93,30.06,3.0,Calm,Calm,-,0.04,Rain,Light Rain,0,2013-02-07 22:40:00
5:54 PM,41.0,39.0,93,30.07,4.0,NNW,4.6,-,0.05,Rain,Light Rain,330,2013-02-07 22:54:00
6:06 PM,41.0,39.2,93,30.05,7.0,North,5.8,-,0.01,Rain,Light Rain,350,2013-02-07 23:06:00
6:13 PM,41.0,39.2,93,30.05,8.0,North,4.6,-,0.01,Rain,Light Rain,360,2013-02-07 23:13:00
6:54 PM,41.0,39.0,93,30.06,9.0,Calm,Calm,-,0.05,Rain,Light Rain,0,2013-02-07 23:54:00
7:05 PM,41.0,39.2,93,30.04,10.0,Calm,Calm,-,0.00,Rain,Light Rain,0,2013-02-08 00:05:00
7:54 PM,41.0,39.0,93,30.05,8.0,Calm,Calm,-,0.03,Rain,Light Rain,0,2013-02-08 00:54:00
8:01 PM,41.0,39.2,93,30.04,7.0,Calm,Calm,-,0.00,Rain,Light Rain,0,2013-02-08 01:01:00
8:16 PM,41.0,39.2,93,30.03,6.0,Calm,Calm,-,0.01,Rain,Light Rain,0,2013-02-08 01:16:00
8:43 PM,41.0,39.2,93,30.03,6.0,Calm,Calm,-,0.05,Rain,Light Rain,0,2013-02-08 01:43:00
8:52 PM,41.0,39.2,93,30.03,6.0,Calm,Calm,-,0.05,Rain,Light Rain,0,2013-02-08 01:52:00
8:54 PM,41.0,39.9,96,30.04,6.0,Calm,Calm,-,0.05,Rain,Light Rain,0,2013-02-08 01:54:00
9:09 PM,41.0,39.2,93,30.02,7.0,Calm,Calm,-,0.01,Rain,Light Rain,0,2013-02-08 02:09:00
9:37 PM,41.0,39.2,93,30.02,8.0,Calm,Calm,-,0.03,Rain,Light Rain,0,2013-02-08 02:37:00
9:54 PM,41.0,41.0,100,30.02,7.0,Calm,Calm,-,0.04,Rain,Light Rain,0,2013-02-08 02:54:00
10:05 PM,41.0,41.0,100,30.01,7.0,Calm,Calm,-,0.00,Rain,Light Rain,0,2013-02-08 03:05:00
10:18 PM,41.0,39.2,93,30.00,1.8,Calm,Calm,-,0.00,Rain,Light Rain,0,2013-02-08 03:18:00
10:30 PM,41.0,39.2,93,30.00,3.0,Calm,Calm,-,0.00,Rain,Light Rain,0,2013-02-08 03:30:00
10:41 PM,41.0,39.2,93,30.00,4.0,Calm,Calm,-,0.01,,Overcast,0,2013-02-08 03:41:00
10:54 PM,41.0,39.9,96,30.00,7.0,Calm,Calm,-,0.01,,Overcast,0,2013-02-08 03:54:00
11:29 PM,41.0,41.0,100,29.99,7.0,Calm,Calm,-,N/A,,Overcast,0,2013-02-08 04:29:00
11:54 PM,42.1,41.0,96,29.98,7.0,Calm,Calm,-,N/A,,Overcast,0,2013-02-08 04:54:00